TimeMST,TemperatureF,Dew PointF,Humidity,Sea Level PressureIn,VisibilityMPH,Wind Direction,Wind SpeedMPH,Gust SpeedMPH,PrecipitationIn,Events,Conditions,WindDirDegrees,DateUTC
12:53 AM,50.0,30.0,46,30.05,10.0,SE,8.1,-,N/A,,Clear,140,2012-12-02 07:53:00
1:53 AM,50.0,28.9,44,30.03,10.0,SE,8.1,-,N/A,,Clear,140,2012-12-02 08:53:00
2:53 AM,48.0,28.9,48,30.03,10.0,SE,4.6,-,N/A,,Clear,130,2012-12-02 09:53:00
3:53 AM,48.9,28.0,44,30.02,10.0,SE,6.9,-,N/A,,Clear,140,2012-12-02 10:53:00
4:53 AM,48.0,26.1,42,30.04,10.0,SE,6.9,-,N/A,,Clear,140,2012-12-02 11:53:00
5:53 AM,46.0,25.0,44,30.05,10.0,SSE,6.9,-,N/A,,Clear,150,2012-12-02 12:53:00
6:53 AM,46.9,26.1,44,30.06,10.0,SE,9.2,-,N/A,,Clear,140,2012-12-02 13:53:00
7:53 AM,48.0,26.1,42,30.08,10.0,SE,8.1,-,N/A,,Clear,140,2012-12-02 14:53:00
8:53 AM,53.1,26.1,35,30.08,10.0,SSE,6.9,-,N/A,,Clear,150,2012-12-02 15:53:00
9:53 AM,61.0,26.1,26,30.08,10.0,SE,6.9,-,N/A,,Clear,140,2012-12-02 16:53:00
10:53 AM,66.9,27.0,22,30.07,10.0,SSE,4.6,-,N/A,,Clear,160,2012-12-02 17:53:00
11:53 AM,72.0,27.0,19,30.04,10.0,Calm,Calm,-,N/A,,Clear,0,2012-12-02 18:53:00
12:53 PM,73.9,25.0,16,30.01,10.0,SE,3.5,-,N/A,,Clear,130,2012-12-02 19:53:00
1:53 PM,77.0,23.0,13,30.06,10.0,Variable,6.9,-,N/A,,Clear,0,2012-12-02 20:53:00
2:53 PM,77.0,21.9,13,29.96,10.0,WNW,9.2,-,N/A,,Clear,300,2012-12-02 21:53:00
3:53 PM,77.0,28.0,17,29.96,10.0,NNW,9.2,-,N/A,,Clear,330,2012-12-02 22:53:00
4:53 PM,75.2,28.4,18,30.04,10.0,WNW,3.5,-,N/A,,Clear,300,2012-12-02 23:53:00
5:53 PM,71.1,30.9,23,29.99,10.0,WNW,4.6,-,N/A,,Clear,300,2012-12-03 00:53:00
6:53 PM,66.9,30.0,25,30.01,10.0,Variable,3.5,-,N/A,,Clear,0,2012-12-03 01:53:00
7:53 PM,62.1,30.0,30,30.03,10.0,Calm,Calm,-,N/A,,Clear,0,2012-12-03 02:53:00
8:53 PM,60.1,30.0,32,30.05,10.0,SSW,4.6,-,N/A,,Clear,200,2012-12-03 03:53:00
9:53 PM,59.0,30.9,35,30.05,10.0,South,6.9,-,N/A,,Clear,190,2012-12-03 04:53:00
10:53 PM,55.9,28.0,34,30.04,10.0,South,3.5,-,N/A,,Clear,180,2012-12-03 05:53:00
11:53 PM,54.0,28.9,38,30.04,10.0,SE,6.9,-,N/A,,Clear,140,2012-12-03 06:53:00